GSAT0211 (GALILEO 14)

Last updated on Tue Nov 19 2024 00:02:30 GMT+0000 (Coordinated Universal Time)

1 41549U 16030A 24322.18356293 -.00000005 00000+0 00000+0 0 9997 2 41549 55.2995 237.5679 0003663 351.9838 8.0500 1.70472908 52833
UTC large
Height (km)
Speed (km/s)
/
Latitude / Longitude
Inclination (degrees)
Orbital Period (minutes)
Azimuth
Elevation
Range (km)
Doppler Factor

Next 0 passes for location: London (51.5072 / 0.1276)

Sorry there are no passes over London.